| time (UTC) | temp F | wind direction | speed MPH | gust MPH | rain 1hr in | rain 24hr in | rain mn in | humidity % | barometer mb |
| 20260510204556 | 73 | 0 | 0.0 | 8.0 | 0.00 | 0.00 | 0.00 | 70 | 1015.9 |
| 20260510203057 | 74 | 0 | 0.0 | 2.0 | 0.00 | 0.00 | 0.00 | 70 | 1016.3 |
| 20260510201601 | 75 | 0 | 0.0 | 1.0 | 0.00 | 0.00 | 0.00 | 68 | 1016.6 |
| 20260510200053 | 74 | 0 | 0.0 | 3.0 | 0.00 | 0.00 | 0.00 | 70 | 1016.3 |
| 20260510194553 | 74 | 0 | 0.0 | 9.0 | 0.00 | 0.00 | 0.00 | 70 | 1016.5 |
| 20260510193053 | 74 | 0 | 0.0 | 6.0 | 0.00 | 0.00 | 0.00 | 70 | 1016.6 |
| 20260510191605 | 74 | 0 | 0.0 | 4.0 | 0.00 | 0.00 | 0.00 | 69 | 1016.5 |
| 20260510190101 | 75 | 0 | 0.0 | 6.0 | 0.00 | 0.00 | 0.00 | 68 | 1016.3 |
| 20260510184556 | 75 | 0 | 0.0 | 3.0 | 0.00 | 0.00 | 0.00 | 66 | 1016.2 |
| 20260510183057 | 75 | 0 | 0.0 | 3.0 | 0.00 | 0.00 | 0.00 | 64 | 1016.0 |
| 20260510181555 | 76 | 0 | 0.0 | 6.0 | 0.00 | 0.00 | 0.00 | 63 | 1015.8 |
| 20260510180053 | 74 | 0 | 0.0 | 9.0 | 0.00 | 0.00 | 0.00 | 67 | 1015.6 |
| 20260510174553 | 74 | 0 | 0.0 | 2.0 | 0.00 | 0.00 | 0.00 | 65 | 1015.8 |
| 20260510173053 | 77 | 0 | 1.0 | 12.0 | 0.00 | 0.00 | 0.00 | 62 | 1016.0 |
| 20260510171556 | 79 | 0 | 0.0 | 6.0 | 0.00 | 0.00 | 0.00 | 68 | 1015.9 |
| 20260510170052 | 80 | 0 | 0.0 | 7.0 | 0.00 | 0.00 | 0.00 | 67 | 1015.6 |
| 20260510164554 | 81 | 115 | 1.0 | 8.0 | 0.00 | 0.00 | 0.00 | 65 | 1015.0 |
| 20260510163056 | 80 | 0 | 1.0 | 9.0 | 0.00 | 0.00 | 0.00 | 67 | 1014.2 |
| 20260510161607 | 80 | 209 | 1.0 | 10.0 | 0.00 | 0.00 | 0.00 | 67 | 1014.0 |
| 20260510160135 | 79 | 137 | 0.0 | 10.0 | 0.00 | 0.00 | 0.00 | 69 | 1013.8 |
| 20260510154557 | 78 | 205 | 3.0 | 10.0 | 0.00 | 0.00 | 0.00 | 68 | 1013.4 |
| 20260510153055 | 78 | 152 | 1.0 | 10.0 | 0.00 | 0.00 | 0.00 | 68 | 1013.6 |
| 20260510151558 | 77 | 0 | 0.0 | 10.0 | 0.00 | 0.00 | 0.00 | 70 | 1013.9 |
| 20260510150057 | 76 | 117 | 3.0 | 11.0 | 0.00 | 0.00 | 0.00 | 68 | 1013.8 |
| 20260510144605 | 75 | 118 | 2.0 | 12.0 | 0.00 | 0.00 | 0.00 | 67 | 1013.9 |
| 20260510143056 | 73 | 148 | 3.0 | 11.0 | 0.00 | 0.00 | 0.00 | 67 | 1014.2 |
| 20260510141552 | 73 | 121 | 2.0 | 10.0 | 0.00 | 0.00 | 0.00 | 67 | 1014.4 |
| 20260510134605 | 72 | 0 | 1.0 | 9.0 | 0.00 | 0.00 | 0.00 | 70 | 1014.5 |
| 20260510133057 | 70 | 106 | 0.0 | 7.0 | 0.00 | 0.00 | 0.00 | 73 | 1014.3 |
| 20260510131554 | 70 | 0 | 0.0 | 7.0 | 0.00 | 0.00 | 0.00 | 74 | 1014.6 |
| 20260510130056 | 69 | 0 | 1.0 | 8.0 | 0.00 | 0.00 | 0.00 | 74 | 1014.1 |
| 20260510124554 | 69 | 0 | 0.0 | 7.0 | 0.00 | 0.00 | 0.00 | 74 | 1014.2 |
| 20260510123053 | 69 | 126 | 0.0 | 9.0 | 0.00 | 0.00 | 0.00 | 74 | 1014.1 |
| 20260510121549 | 69 | 0 | 2.0 | 10.0 | 0.00 | 0.00 | 0.00 | 74 | 1013.7 |
| 20260510120049 | 70 | 0 | 2.0 | 11.0 | 0.00 | 0.00 | 0.00 | 74 | 1013.4 |
| 20260510114553 | 70 | 0 | 4.0 | 16.0 | 0.00 | 0.00 | 0.00 | 74 | 1013.4 |
| 20260510113102 | 71 | 0 | 3.0 | 14.0 | 0.00 | 0.00 | 0.00 | 76 | 1013.2 |
| 20260510111607 | 71 | 0 | 3.0 | 12.0 | 0.00 | 0.00 | 0.00 | 76 | 1013.0 |
| 20260510110054 | 72 | 0 | 1.0 | 12.0 | 0.00 | 0.00 | 0.00 | 75 | 1013.0 |
| 20260510104552 | 73 | 0 | 0.0 | 9.0 | 0.00 | 0.00 | 0.00 | 80 | 1012.8 |
| 20260510103052 | 73 | 0 | 1.0 | 11.0 | 0.00 | 0.00 | 0.00 | 81 | 1012.7 |
| 20260510101557 | 73 | 0 | 0.0 | 4.0 | 0.00 | 0.00 | 0.00 | 82 | 1012.5 |
| 20260510100057 | 72 | 0 | 0.0 | 6.0 | 0.00 | 0.00 | 0.00 | 84 | 1012.2 |
| 20260510094553 | 71 | 0 | 0.0 | 0.0 | 0.00 | 0.00 | 0.00 | 85 | 1012.3 |
| 20260510093111 | 71 | 0 | 0.0 | 0.0 | 0.00 | 0.00 | 0.00 | 83 | 1011.6 |
| 20260510091557 | 71 | 0 | 0.0 | 0.0 | 0.00 | 0.00 | 0.00 | 82 | 1011.4 |
| 20260510090104 | 71 | 0 | 0.0 | 0.0 | 0.00 | 0.00 | 0.00 | 80 | 1011.1 |
| 20260510084552 | 72 | 0 | 0.0 | 0.0 | 0.00 | 0.00 | 0.00 | 80 | 1011.2 |
| 20260510083109 | 73 | 0 | 0.0 | 0.0 | 0.00 | 0.00 | 0.00 | 79 | 1010.9 |
| 20260510081609 | 73 | 0 | 0.0 | 2.0 | 0.00 | 0.00 | 0.00 | 79 | 1010.3 |
| 20260510080055 | 73 | 0 | 0.0 | 2.0 | 0.00 | 0.00 | 0.00 | 80 | 1010.0 |
| 20260510074558 | 74 | 0 | 0.0 | 4.0 | 0.00 | 0.00 | 0.00 | 79 | 1009.8 |
| 20260510073056 | 74 | 0 | 0.0 | 4.0 | 0.00 | 0.00 | 0.00 | 75 | 1009.7 |
| 20260510071555 | 74 | 0 | 1.0 | 6.0 | 0.00 | 0.00 | 0.00 | 75 | 1010.0 |
| 20260510070055 | 73 | 0 | 0.0 | 0.0 | 0.00 | 0.00 | 0.00 | 75 | 1010.2 |
| 20260510064604 | 74 | 0 | 0.0 | 2.0 | 0.00 | 0.00 | 0.00 | 74 | 1010.4 |
| 20260510063055 | 73 | 0 | 0.0 | 0.0 | 0.00 | 0.00 | 0.00 | 75 | 1010.6 |
| 20260510061551 | 74 | 0 | 0.0 | 4.0 | 0.00 | 0.00 | 0.00 | 73 | 1009.1 |
| 20260510060053 | 74 | 0 | 0.0 | 4.0 | 0.00 | 0.00 | 0.00 | 72 | 1009.0 |
| 20260510054553 | 74 | 207 | 0.0 | 2.0 | 0.00 | 0.00 | 0.00 | 72 | 1008.8 |
| 20260510053052 | 74 | 0 | 0.0 | 0.0 | 0.00 | 0.00 | 0.00 | 71 | 1008.6 |
| 20260510051559 | 75 | 0 | 0.0 | 5.0 | 0.00 | 0.00 | 0.00 | 70 | 1008.6 |
| 20260510050100 | 75 | 132 | 0.0 | 6.0 | 0.00 | 0.00 | 0.00 | 71 | 1008.5 |
| 20260510044619 | 75 | 0 | 0.0 | 4.0 | 0.00 | 0.00 | 0.00 | 71 | 1008.4 |
| 20260510043055 | 75 | 0 | 0.0 | 2.0 | 0.00 | 0.00 | 0.00 | 68 | 1008.7 |
| 20260510041556 | 75 | 0 | 0.0 | 2.0 | 0.00 | 0.00 | 0.00 | 65 | 1008.7 |
| 20260510040055 | 76 | 0 | 0.0 | 1.0 | 0.00 | 0.00 | 0.00 | 67 | 1008.7 |
| 20260510034606 | 76 | 0 | 0.0 | 1.0 | 0.00 | 0.00 | 0.00 | 68 | 1008.8 |
| 20260510033103 | 77 | 0 | 0.0 | 2.0 | 0.00 | 0.00 | 0.00 | 66 | 1009.1 |
| 20260510031552 | 78 | 0 | 0.0 | 2.0 | 0.00 | 0.00 | 0.00 | 63 | 1009.0 |
| 20260510030055 | 77 | 0 | 0.0 | 0.0 | 0.00 | 0.00 | 0.00 | 63 | 1008.8 |
| 20260510024553 | 77 | 0 | 0.0 | 0.0 | 0.00 | 0.00 | 0.00 | 63 | 1008.6 |
| 20260510023054 | 78 | 0 | 0.0 | 0.0 | 0.00 | 0.00 | 0.00 | 64 | 1008.6 |
| 20260510021553 | 79 | 0 | 0.0 | 0.0 | 0.00 | 0.00 | 0.00 | 63 | 1008.4 |
| 20260510020051 | 80 | 0 | 0.0 | 0.0 | 0.00 | 0.00 | 0.00 | 59 | 1008.3 |
| 20260510014553 | 80 | 0 | 0.0 | 0.0 | 0.00 | 0.00 | 0.00 | 57 | 1008.2 |
| 20260510013053 | 81 | 0 | 0.0 | 0.0 | 0.00 | 0.00 | 0.00 | 56 | 1007.8 |
| 20260510011556 | 83 | 0 | 0.0 | 3.0 | 0.00 | 0.00 | 0.00 | 53 | 1007.7 |
| 20260510010126 | 84 | 0 | 0.0 | 5.0 | 0.00 | 0.00 | 0.00 | 50 | 1007.5 |
| 20260510004554 | 85 | 0 | 0.0 | 5.0 | 0.00 | 0.00 | 0.00 | 48 | 1007.4 |
| 20260510003054 | 87 | 0 | 0.0 | 0.0 | 0.00 | 0.00 | 0.00 | 49 | 1007.5 |
| 20260510001554 | 88 | 0 | 0.0 | 0.0 | 0.00 | 0.00 | 0.00 | 44 | 1007.5 |
| 20260510000054 | 89 | 0 | 0.0 | 0.0 | 0.00 | 0.00 | 0.00 | 43 | 1007.6 |
| 20260509234613 | 90 | 0 | 0.0 | 3.0 | 0.00 | 0.00 | 0.00 | 40 | 1007.5 |
| 20260509233054 | 90 | 0 | 0.0 | 3.0 | 0.00 | 0.00 | 0.00 | 42 | 1007.7 |
| 20260509231554 | 90 | 0 | 0.0 | 3.0 | 0.00 | 0.00 | 0.00 | 42 | 1007.6 |
| 20260509230053 | 91 | 189 | 0.0 | 2.0 | 0.00 | 0.00 | 0.00 | 40 | 1007.7 |
| 20260509224553 | 91 | 0 | 0.0 | 3.0 | 0.00 | 0.00 | 0.00 | 40 | 1007.6 |
| 20260509223052 | 91 | 192 | 0.0 | 3.0 | 0.00 | 0.00 | 0.00 | 40 | 1007.6 |
| 20260509221550 | 91 | 0 | 0.0 | 3.0 | 0.00 | 0.00 | 0.00 | 39 | 1007.7 |
| 20260509214554 | 93 | 0 | 0.0 | 2.0 | 0.00 | 0.00 | 0.00 | 33 | 1007.8 |
| 20260509213057 | 91 | 0 | 0.0 | 2.0 | 0.00 | 0.00 | 0.00 | 35 | 1007.9 |
| 20260509211556 | 92 | 0 | 0.0 | 3.0 | 0.00 | 0.00 | 0.00 | 36 | 1008.0 |